Архив погоды в Донецке за Ноябрь, 2018 год

icon
Год:Все20022003200420052006200720082009201020112012201320142015201620172018
Месяц:ЯнварьФевральМартАпрельМайИюньИюльАвгустСентябрьОктябрьНоябрьДекабрь
Дата Облачность Температура (д/н), °C Давление, мм Влажность, % Ветер, м/с
01.11.2018 Облачность пасмурно +8 / +3 754 77 В, 6
02.11.2018 Облачность ясно +12 / +3 752 54 В, 6
03.11.2018 Облачность ясно +12 / +2 749 56 В, 5
04.11.2018 Облачность ясно +14 / +8 746 59 С-З, 1
05.11.2018 Облачность пасмурно +9 / +5 747 64 В, 4
06.11.2018 Облачность ясно +9 / +3 748 59 В, 4
07.11.2018 Облачность ясно +9 / +1 746 54 В, 3
08.11.2018 Облачность ясно +10 / -1 744 53 С, 2
09.11.2018 Облачность ясно +10 / +0 743 51 С, 2
10.11.2018 Облачность пасмурно +0 / +0 743 100 С-В, 1
11.11.2018 Облачность пасмурно +3 / -2 748 79 В, 5
12.11.2018 Облачность пасмурно -4 / -5 752 71 В, 6
13.11.2018 Облачность пасмурно -4 / -2 751 75 С-В, 6
14.11.2018 Облачность пасмурно +4 / -2 746 67 В, 4
15.11.2018 Облачность ясно +2 / -1 745 39 В, 6
16.11.2018 Облачность ясно -1 / -2 747 79 В, 7
17.11.2018 Облачность снег +1 / -3 754 59 С-В, 3
18.11.2018 Облачность ясно +3 / -4 749 36 Ю-З, 1
19.11.2018 Облачность пасмурно +1 / -2 747 70 В, 4
20.11.2018 Облачность дождь +0 / +0 743 98 В, 4
21.11.2018 Облачность дождь +1 / +0 743 90 С-В, 3
22.11.2018 Облачность снег +0 / -4 741 83 С-В, 4
23.11.2018 Облачность ясно -2 / -6 743 68 С-З, 2
24.11.2018 Облачность снег -2 / -5 741 78 С-З, 2
25.11.2018 Облачность пасмурно -5 / -8 745 64 З, 3
26.11.2018 Облачность пасмурно +0 / -1 746 83 В, 3
27.11.2018 Облачность пасмурно +3 / -1 742 73 В, 4
icon
Облачность:снег снег
Темп. днем:0..2 °C
Темп. ночью:-4..-2 °C
Давление:754 мм
Влажность:59 %
Ветер:СВ, 3 м/с
icon
USDusd27,75(-0,01929)
RUBrub0,42(+0,00364)
EUReur31,49(+0,09199)
icon
Сб. 17 Ноябрь 2018
icon
Логин:
Код: ---
 
Реклама
icon